Radiation Dose at Monitoring Post of Fukushima Daini Nuclear Power Station
Date,Time,MP-1(microSv/h),MP-2(microSv/h),MP-3(microSv/h),MP-4(microSv/h),MP-5(microSv/h),MP-6(microSv/h),MP-7(microSv/h),Wind Direction,Wind Velocity(m/s),Rain
2023/02/11,00:00,0.153,0.140,0.206,0.198,0.203,0.122,0.084,north-northwest,8.2,Yes
2023/02/11,00:10,0.152,0.140,0.207,0.197,0.204,0.122,0.084,northwest,8.5,Yes
2023/02/11,00:20,0.154,0.142,0.206,0.199,0.205,0.123,0.084,north-northwest,10.1,Yes
2023/02/11,00:30,0.155,0.142,0.207,0.199,0.204,0.124,0.084,north-northwest,9.5,Yes
2023/02/11,00:40,0.154,0.142,0.206,0.199,0.204,0.124,0.085,north-northwest,9.5,Yes
2023/02/11,00:50,0.154,0.142,0.208,0.198,0.206,0.123,0.084,north-northwest,8.5,Yes
2023/02/11,01:00,0.154,0.142,0.208,0.198,0.204,0.122,0.084,north-northwest,9.0,Yes
2023/02/11,01:10,0.154,0.141,0.208,0.199,0.203,0.122,0.083,north-northwest,9.0,Yes
2023/02/11,01:20,0.153,0.141,0.206,0.199,0.204,0.123,0.083,north-northwest,10.6,Yes
2023/02/11,01:30,0.153,0.141,0.208,0.199,0.203,0.121,0.083,north-northwest,10.1,Yes
2023/02/11,01:40,0.153,0.140,0.208,0.198,0.203,0.121,0.082,north-northwest,10.9,Yes
2023/02/11,01:50,0.151,0.141,0.207,0.199,0.203,0.121,0.082,north-northwest,11.2,Yes
2023/02/11,02:00,0.152,0.139,0.206,0.198,0.203,0.120,0.080,north-northwest,9.0,Yes
2023/02/11,02:10,0.151,0.139,0.206,0.197,0.203,0.119,0.080,north-northwest,10.1,No
2023/02/11,02:20,0.151,0.138,0.205,0.197,0.204,0.118,0.079,north-northwest,9.8,No
2023/02/11,02:30,0.150,0.136,0.205,0.196,0.202,0.118,0.078,northwest,9.0,No
2023/02/11,02:40,0.148,0.137,0.205,0.197,0.202,0.117,0.077,north-northwest,12.9,No
2023/02/11,02:50,0.149,0.137,0.204,0.196,0.202,0.118,0.078,north-northwest,11.2,No
2023/02/11,03:00,0.150,0.136,0.203,0.197,0.202,0.117,0.077,north-northwest,11.8,No
2023/02/11,03:10,0.149,0.135,0.204,0.196,0.203,0.117,0.077,north-northwest,11.2,No
2023/02/11,03:20,0.149,0.136,0.204,0.196,0.203,0.117,0.077,north-northwest,10.1,No
2023/02/11,03:30,0.148,0.136,0.204,0.196,0.202,0.117,0.077,north-northwest,10.4,No
2023/02/11,03:40,0.149,0.136,0.204,0.196,0.202,0.117,0.076,north-northwest,10.4,No
2023/02/11,03:50,0.147,0.135,0.204,0.196,0.203,0.117,0.076,north-northwest,11.5,No
2023/02/11,04:00,0.148,0.134,0.204,0.194,0.202,0.117,0.076,north-northwest,10.3,No
2023/02/11,04:10,0.148,0.135,0.204,0.195,0.202,0.117,0.076,north-northwest,7.6,No
2023/02/11,04:20,0.148,0.135,0.203,0.196,0.203,0.116,0.076,north-northwest,10.4,No
2023/02/11,04:30,0.148,0.136,0.204,0.197,0.203,0.116,0.075,north-northwest,10.6,No
2023/02/11,04:40,0.149,0.135,0.204,0.196,0.203,0.117,0.077,north-northwest,9.6,No
2023/02/11,04:50,0.148,0.135,0.203,0.196,0.203,0.117,0.075,north-northwest,10.7,No
2023/02/11,05:00,0.148,0.135,0.204,0.197,0.204,0.117,0.076,north,10.7,No
2023/02/11,05:10,0.148,0.136,0.204,0.197,0.204,0.117,0.076,north-northwest,11.7,No
2023/02/11,05:20,0.149,0.136,0.204,0.196,0.203,0.116,0.076,north-northwest,10.3,No
2023/02/11,05:30,0.147,0.136,0.205,0.197,0.203,0.118,0.075,north-northwest,10.1,No
2023/02/11,05:40,0.148,0.135,0.205,0.197,0.204,0.117,0.077,north-northwest,10.1,No
2023/02/11,05:50,0.149,0.136,0.204,0.197,0.203,0.117,0.076,north-northwest,10.3,No
2023/02/11,06:00,0.149,0.135,0.204,0.197,0.203,0.117,0.076,north-northwest,10.6,No
2023/02/11,06:10,0.148,0.135,0.206,0.197,0.203,0.117,0.076,north-northwest,11.7,No
2023/02/11,06:20,0.148,0.135,0.205,0.198,0.203,0.117,0.076,north-northwest,10.6,No
2023/02/11,06:30,0.149,0.136,0.206,0.197,0.204,0.117,0.076,north-northwest,10.1,No
2023/02/11,06:40,0.149,0.135,0.206,0.197,0.203,0.117,0.076,north-northwest,11.1,No
2023/02/11,06:50,0.149,0.136,0.205,0.197,0.204,0.117,0.077,north-northwest,10.9,No
2023/02/11,07:00,0.150,0.136,0.205,0.197,0.203,0.118,0.075,north-northwest,11.7,No
2023/02/11,07:10,0.149,0.135,0.204,0.197,0.204,0.117,0.076,north-northwest,10.9,No
2023/02/11,07:20,0.148,0.135,0.205,0.198,0.202,0.117,0.076,north-northwest,12.2,No
2023/02/11,07:30,0.149,0.135,0.205,0.198,0.204,0.117,0.076,northwest,9.8,No
2023/02/11,07:40,0.149,0.136,0.206,0.198,0.204,0.117,0.076,north-northwest,10.0,No
2023/02/11,07:50,0.149,0.135,0.205,0.196,0.204,0.117,0.076,north-northwest,10.6,No
2023/02/11,08:00,0.149,0.135,0.206,0.197,0.204,0.118,0.076,north-northwest,10.6,No
2023/02/11,08:10,0.148,0.135,0.205,0.198,0.203,0.117,0.075,north-northwest,10.3,No
2023/02/11,08:20,0.149,0.135,0.205,0.196,0.204,0.118,0.076,north-northwest,10.9,No
2023/02/11,08:30,0.149,0.135,0.206,0.197,0.203,0.117,0.076,northwest,8.9,No
2023/02/11,08:40,0.149,0.135,0.206,0.198,0.205,0.117,0.076,north-northwest,10.1,No
2023/02/11,08:50,0.149,0.135,0.205,0.198,0.204,0.117,0.076,north-northwest,10.3,No
2023/02/11,09:00,0.149,0.136,0.206,0.198,0.205,0.117,0.076,north-northwest,9.5,No
2023/02/11,09:10,0.149,0.136,0.205,0.198,0.204,0.118,0.076,north-northwest,8.7,No
2023/02/11,09:20,0.149,0.135,0.206,0.198,0.204,0.117,0.075,north-northwest,7.5,No
2023/02/11,09:30,0.150,0.135,0.206,0.198,0.206,0.117,0.076,north-northwest,9.3,No
2023/02/11,09:40,0.150,0.136,0.205,0.199,0.205,0.117,0.076,northwest,9.3,No
2023/02/11,09:50,0.148,0.135,0.206,0.199,0.205,0.118,0.075,north-northwest,7.1,No
2023/02/11,10:00,0.149,0.135,0.205,0.198,0.206,0.117,0.076,north-northwest,6.3,No
2023/02/11,10:10,0.148,0.135,0.205,0.198,0.206,0.117,0.075,north-northwest,7.4,No
2023/02/11,10:20,0.149,0.135,0.206,0.200,0.205,0.118,0.076,north,9.0,No
2023/02/11,10:30,0.148,0.135,0.206,0.199,0.208,0.117,0.076,north-northwest,7.5,No
2023/02/11,10:40,0.149,0.135,0.205,0.201,0.208,0.117,0.076,north,8.1,No
2023/02/11,10:50,0.149,0.135,0.207,0.201,0.206,0.118,0.076,north-northwest,9.2,No
2023/02/11,11:00,0.149,0.135,0.205,0.201,0.208,0.118,0.075,north-northwest,7.9,No
2023/02/11,11:10,0.149,0.134,0.206,0.202,0.206,0.118,0.076,north,10.9,No
2023/02/11,11:20,0.148,0.134,0.207,0.201,0.207,0.117,0.076,north,7.8,No
2023/02/11,11:30,0.148,0.135,0.208,0.201,0.208,0.118,0.076,north,6.7,No
2023/02/11,11:40,0.149,0.135,0.207,0.202,0.208,0.118,0.076,north-northwest,6.0,No
2023/02/11,11:50,0.148,0.134,0.209,0.203,0.210,0.118,0.076,north,7.0,No
2023/02/11,12:00,0.149,0.136,0.208,0.203,0.207,0.118,0.076,north,6.3,No
2023/02/11,12:10,0.148,0.135,0.207,0.204,0.207,0.118,0.076,north,6.5,No
2023/02/11,12:20,0.149,0.135,0.208,0.202,0.208,0.118,0.077,north-northeast,7.9,No
2023/02/11,12:30,0.150,0.135,0.208,0.204,0.208,0.117,0.076,north-northeast,7.4,No
2023/02/11,12:40,0.148,0.135,0.208,0.203,0.209,0.117,0.076,north-northeast,7.6,No
2023/02/11,12:50,0.150,0.136,0.208,0.204,0.207,0.118,0.077,north-northeast,7.9,No
2023/02/11,13:00,0.149,0.135,0.208,0.202,0.208,0.118,0.076,north-northeast,7.1,No
2023/02/11,13:10,0.149,0.137,0.209,0.204,0.209,0.118,0.077,north,6.4,No
2023/02/11,13:20,0.150,0.136,0.209,0.204,0.208,0.119,0.076,north-northeast,7.5,No
2023/02/11,13:30,0.149,0.136,0.209,0.203,0.209,0.118,0.076,north,6.0,No
2023/02/11,13:40,0.149,0.137,0.209,0.204,0.208,0.118,0.076,north-northeast,7.0,No
2023/02/11,13:50,0.149,0.136,0.209,0.203,0.209,0.118,0.076,north-northeast,6.9,No
2023/02/11,14:00,0.149,0.136,0.209,0.205,0.208,0.118,0.075,northeast,6.0,No
2023/02/11,14:10,0.149,0.135,0.210,0.203,0.208,0.118,0.076,north,4.8,No
2023/02/11,14:20,0.149,0.135,0.209,0.204,0.209,0.118,0.076,north-northeast,6.3,No
2023/02/11,14:30,0.150,0.136,0.208,0.204,0.208,0.118,0.077,north-northeast,7.0,No
2023/02/11,14:40,0.150,0.135,0.209,0.206,0.210,0.119,0.076,north-northeast,6.7,No
2023/02/11,14:50,0.149,0.136,0.211,0.206,0.210,0.118,0.076,north-northeast,5.1,No
2023/02/11,15:00,0.148,0.136,0.210,0.204,0.209,0.119,0.076,north-northeast,6.5,No
2023/02/11,15:10,0.150,0.135,0.210,0.206,0.209,0.118,0.077,north-northeast,4.4,No
2023/02/11,15:20,0.150,0.136,0.210,0.207,0.209,0.118,0.077,north,5.0,No
2023/02/11,15:30,0.149,0.137,0.210,0.206,0.207,0.118,0.076,north-northeast,4.3,No
2023/02/11,15:40,0.150,0.136,0.211,0.206,0.209,0.118,0.075,north-northeast,4.6,No
2023/02/11,15:50,0.151,0.137,0.209,0.207,0.209,0.117,0.075,north-northeast,4.0,No
2023/02/11,16:00,0.150,0.137,0.209,0.206,0.208,0.119,0.076,north,4.2,No
2023/02/11,16:10,0.149,0.137,0.210,0.205,0.208,0.119,0.076,north-northwest,2.5,No
2023/02/11,16:20,0.150,0.135,0.210,0.206,0.209,0.119,0.076,north,2.8,No
2023/02/11,16:30,0.150,0.136,0.210,0.206,0.210,0.119,0.076,north-northwest,2.1,No
2023/02/11,16:40,0.149,0.137,0.210,0.206,0.209,0.120,0.076,north-northwest,2.5,No
2023/02/11,16:50,0.150,0.136,0.211,0.206,0.208,0.119,0.076,north-northwest,3.9,No
2023/02/11,17:00,0.150,0.136,0.209,0.206,0.208,0.119,0.076,north-northwest,4.3,No
2023/02/11,17:10,0.150,0.136,0.210,0.207,0.209,0.119,0.076,north-northwest,4.2,No
2023/02/11,17:20,0.150,0.136,0.210,0.207,0.209,0.120,0.076,north-northwest,3.8,No
2023/02/11,17:30,0.149,0.136,0.209,0.206,0.209,0.120,0.076,north-northwest,3.4,No
2023/02/11,17:40,0.149,0.135,0.209,0.206,0.209,0.120,0.077,north-northwest,3.5,No
2023/02/11,17:50,0.150,0.136,0.210,0.206,0.209,0.119,0.076,northwest,3.4,No
2023/02/11,18:00,0.151,0.135,0.210,0.206,0.209,0.118,0.076,northwest,4.0,No
2023/02/11,18:10,0.150,0.135,0.210,0.206,0.209,0.119,0.076,north-northwest,3.9,No
2023/02/11,18:20,0.150,0.136,0.209,0.206,0.208,0.120,0.076,northwest,3.9,No
2023/02/11,18:30,0.151,0.137,0.209,0.205,0.209,0.119,0.076,northwest,4.2,No
2023/02/11,18:40,0.150,0.136,0.211,0.207,0.209,0.118,0.077,northwest,4.0,No
2023/02/11,18:50,0.151,0.136,0.210,0.206,0.208,0.119,0.076,northwest,3.8,No
2023/02/11,19:00,0.149,0.136,0.210,0.207,0.209,0.119,0.077,northwest,3.9,No
2023/02/11,19:10,0.149,0.136,0.210,0.206,0.208,0.119,0.076,northwest,3.9,No
2023/02/11,19:20,0.149,0.137,0.211,0.206,0.208,0.118,0.077,northwest,4.4,No
2023/02/11,19:30,0.150,0.137,0.210,0.205,0.209,0.119,0.076,northwest,5.0,No
2023/02/11,19:40,0.150,0.136,0.210,0.206,0.209,0.119,0.076,northwest,4.2,No
2023/02/11,19:50,0.150,0.137,0.210,0.206,0.207,0.119,0.077,northwest,4.1,No
2023/02/11,20:00,0.151,0.137,0.211,0.206,0.209,0.119,0.076,northwest,3.7,No
2023/02/11,20:10,0.150,0.136,0.211,0.207,0.207,0.120,0.076,northwest,3.2,No
2023/02/11,20:20,0.150,0.136,0.210,0.205,0.208,0.119,0.077,northwest,3.3,No
2023/02/11,20:30,0.150,0.137,0.209,0.207,0.210,0.120,0.077,northwest,4.1,No
2023/02/11,20:40,0.150,0.137,0.211,0.205,0.210,0.118,0.077,northwest,3.6,No
2023/02/11,20:50,0.151,0.136,0.211,0.207,0.209,0.119,0.077,northwest,3.1,No
2023/02/11,21:00,0.151,0.136,0.211,0.207,0.209,0.119,0.077,northwest,2.7,No
2023/02/11,21:10,0.150,0.136,0.211,0.207,0.208,0.119,0.077,northwest,2.8,No
2023/02/11,21:20,0.151,0.137,0.211,0.207,0.209,0.120,0.076,west-northwest,2.6,No
2023/02/11,21:30,0.151,0.136,0.211,0.207,0.208,0.120,0.077,northwest,2.4,No
2023/02/11,21:40,0.150,0.136,0.211,0.206,0.207,0.119,0.077,west-northwest,1.8,No
2023/02/11,21:50,0.150,0.136,0.212,0.207,0.209,0.118,0.076,west-northwest,2.2,No
2023/02/11,22:00,0.150,0.136,0.210,0.206,0.207,0.120,0.076,west-northwest,1.8,No
2023/02/11,22:10,0.151,0.136,0.210,0.206,0.208,0.119,0.076,northwest,2.5,No
2023/02/11,22:20,0.150,0.136,0.211,0.206,0.209,0.119,0.077,west-northwest,2.6,No
2023/02/11,22:30,0.150,0.135,0.211,0.206,0.208,0.120,0.076,northwest,2.3,No
2023/02/11,22:40,0.151,0.136,0.210,0.206,0.209,0.119,0.076,northwest,2.6,No
2023/02/11,22:50,0.150,0.137,0.211,0.206,0.209,0.119,0.077,northwest,3.8,No
2023/02/11,23:00,0.150,0.136,0.210,0.207,0.208,0.119,0.076,northwest,3.6,No
2023/02/11,23:10,0.151,0.137,0.211,0.206,0.208,0.119,0.076,northwest,3.5,No
2023/02/11,23:20,0.151,0.137,0.210,0.206,0.208,0.119,0.076,northwest,3.2,No
2023/02/11,23:30,0.150,0.137,0.211,0.207,0.209,0.119,0.077,northwest,2.8,No
2023/02/11,23:40,0.151,0.136,0.211,0.206,0.210,0.119,0.077,northwest,2.5,No
2023/02/11,23:50,0.150,0.135,0.210,0.207,0.209,0.119,0.076,northwest,2.4,No
